TimeEST,TemperatureF,Dew PointF,Humidity,Sea Level PressureIn,VisibilityMPH,Wind Direction,Wind SpeedMPH,Gust SpeedMPH,PrecipitationIn,Events,Conditions,WindDirDegrees,DateUTC
12:01 AM,42.8,41.0,93,29.98,0.2,Calm,Calm,-,N/A,Fog,Fog,0,2012-12-09 05:01:00
12:27 AM,41.0,39.2,93,29.97,0.2,Calm,Calm,-,N/A,Fog,Fog,0,2012-12-09 05:27:00
12:35 AM,41.0,39.2,93,29.98,0.1,Calm,Calm,-,N/A,Fog,Fog,0,2012-12-09 05:35:00
12:51 AM,41.0,39.9,96,29.99,0.1,Calm,Calm,-,N/A,Fog,Fog,0,2012-12-09 05:51:00
1:51 AM,39.0,37.9,96,30.04,0.1,Calm,Calm,-,N/A,Fog,Fog,0,2012-12-09 06:51:00
2:23 AM,37.4,37.4,100,30.05,0.2,Calm,Calm,-,N/A,Fog,Fog,0,2012-12-09 07:23:00
2:28 AM,37.4,37.4,100,30.05,0.2,Calm,Calm,-,N/A,Fog,Fog,0,2012-12-09 07:28:00
2:37 AM,37.4,37.4,100,30.05,3.0,NNW,4.6,-,N/A,,Scattered Clouds,340,2012-12-09 07:37:00
2:51 AM,37.0,36.0,96,30.07,7.0,NNW,3.5,-,N/A,,Scattered Clouds,340,2012-12-09 07:51:00
3:51 AM,37.0,36.0,96,30.08,8.0,Calm,Calm,-,N/A,,Partly Cloudy,0,2012-12-09 08:51:00
4:51 AM,42.1,36.0,79,30.11,10.0,NNW,6.9,-,N/A,,Clear,330,2012-12-09 09:51:00
5:51 AM,39.2,33.8,81,30.15,10.0,NW,5.8,-,N/A,,Partly Cloudy,320,2012-12-09 10:51:00
6:51 AM,39.9,33.1,77,30.18,10.0,NW,10.4,-,N/A,,Scattered Clouds,320,2012-12-09 11:51:00
7:51 AM,39.9,33.1,77,30.22,10.0,NW,8.1,-,N/A,,Mostly Cloudy,320,2012-12-09 12:51:00
8:51 AM,41.0,33.1,73,30.25,10.0,NW,8.1,-,N/A,,Mostly Cloudy,320,2012-12-09 13:51:00
9:51 AM,42.1,33.1,70,30.26,10.0,NW,5.8,-,N/A,,Mostly Cloudy,310,2012-12-09 14:51:00
10:51 AM,43.0,34.0,71,30.25,10.0,North,4.6,-,N/A,,Mostly Cloudy,350,2012-12-09 15:51:00
11:51 AM,43.0,33.1,68,30.25,10.0,NNW,4.6,-,N/A,,Mostly Cloudy,340,2012-12-09 16:51:00
12:51 PM,45.0,34.0,65,30.23,10.0,North,4.6,-,N/A,,Mostly Cloudy,10,2012-12-09 17:51:00
1:51 PM,45.0,32.0,60,30.23,10.0,NNE,5.8,-,N/A,,Mostly Cloudy,20,2012-12-09 18:51:00
2:51 PM,44.6,33.8,66,30.23,10.0,NNE,5.8,-,N/A,,Mostly Cloudy,30,2012-12-09 19:51:00
3:51 PM,43.0,30.9,62,30.23,10.0,NNE,4.6,-,N/A,,Mostly Cloudy,30,2012-12-09 20:51:00
4:51 PM,42.1,30.9,65,30.24,10.0,North,4.6,-,N/A,,Overcast,360,2012-12-09 21:51:00
5:51 PM,42.1,32.0,67,30.25,10.0,North,3.5,-,N/A,,Overcast,10,2012-12-09 22:51:00
6:51 PM,42.1,33.1,70,30.25,10.0,NE,4.6,-,0.00,Rain,Light Rain,50,2012-12-09 23:51:00
7:51 PM,41.0,33.1,73,30.23,10.0,East,6.9,-,0.02,,Overcast,80,2012-12-10 00:51:00
8:51 PM,39.9,34.0,79,30.21,10.0,NNE,3.5,-,0.01,Rain,Light Rain,30,2012-12-10 01:51:00
9:37 PM,37.4,35.6,93,30.19,5.0,NNE,5.8,-,0.00,Rain,Light Rain,20,2012-12-10 02:37:00
9:51 PM,37.9,36.0,93,30.18,4.0,NNE,3.5,-,0.01,Rain,Light Rain,20,2012-12-10 02:51:00
10:06 PM,37.4,35.6,93,30.17,3.0,NNE,3.5,-,0.01,Rain,Light Rain,20,2012-12-10 03:06:00
10:37 PM,37.4,35.6,93,30.16,2.5,North,5.8,-,0.02,Rain,Light Rain,350,2012-12-10 03:37:00
10:51 PM,37.9,36.0,93,30.14,2.0,North,6.9,-,0.03,Rain,Rain,10,2012-12-10 03:51:00
11:51 PM,37.9,37.0,97,30.11,2.0,North,6.9,-,N/A,Rain,Rain,10,2012-12-10 04:51:00